Location: Unspecified
(0.0000°N, 0.0000°E)
Time: 04:48:38
(UTC+00:00)

Safir 2 - Pass Details

Date: 24 May 2026
Orbit: 804 x 808 km, 99.0° (Epoch: 11 June)

Event Time Altitude Azimuth Distance (km) Brightness Sun altitude
Rises 03:51:44 0° 31° (NNE) 3,302 12.1 -29.0°
Reaches altitude 10° 03:54:16 10° 41° (NE) 2,374 11.3 -28.5°
Maximum altitude 03:58:55 32° 103° (ESE) 1,342 9.6 -27.4°
Enters shadow 04:03:28 11° 165° (SSE) 2,349 10.4 -26.4°
